Location: Majorville
(50.6333°N, 112.7000°W)
Time: 16:13:31
(UTC+00:00)

X-37B - Visible Passes

Search period start: 02 December 2021 00:00
Search period end: 12 December 2021 00:00
Orbit: 330 x 341 km, 45.0° (Epoch: 20 November)

Date Brightness Start Highest point End Pass type
(mag) Time Alt. Az. Time Alt. Az. Time Alt. Az.
09 Dec 2.8 01:12:07 10° S 01:13:32 13° SSE 01:13:51 13° SSE visible
10 Dec 2.4 01:31:29 10° SW 01:33:25 19° S 01:33:25 19° S visible
11 Dec 3.0 00:17:32 10° S 00:18:58 13° SSE 00:20:23 10° SE visible
11 Dec 2.6 01:51:26 10° SW 01:52:57 21° SSW 01:52:57 21° SSW visible
